Вернуться в каталог

NOAA 8

АктивенПогодаSSO
NORAD 13923·PAYLOAD·🇺🇸 United States

Запущен Mar 28, 1983 с Vandenberg Space Force Base

Loading…

Ближайшие Пролёты (ближайшие 24 часа)

TLE

СвежийSource: Space-Track

Эпоха: Sep 14, 2026, 00:14 UTC

1 13923U 83022A   26257.00986398  .00000070  00000-0  44691-4 0  9993
2 13923  98.7329 270.3768 0014784   3.4362 356.6919 14.29821475263769

Отслеживайте NOAA 8 в реальном времени с AllMySat

Download on the App Store